AMAZONAS NEXUS

Last updated on Fri Dec 19 2025 00:02:53 GMT+0000 (Coordinated Universal Time)

1 55508U 23017A 25351.75723027 -.00000258 00000+0 00000+0 0 9999 2 55508 0.0383 37.0211 0002208 265.0105 356.2031 1.00270260 5221
UTC large
Height (km)
Speed (km/s)
/
Latitude / Longitude
Inclination (degrees)
Orbital Period (minutes)
Azimuth
Elevation
Range (km)
Doppler Factor

Next 0 passes for location: London (51.5072 / 0.1276)

Sorry there are no passes over London.